This is the latest recevied weather packets stored in our database for station/object N0QV. If no packets are shown the sender has not sent any weather packets the latest 10 day(s).
| Time | Temp. | Humidity | Pressure | Rain* | Wind** | Luminosity | Snow |
|---|---|---|---|---|---|---|---|
| 1787859668 | 26.67° C | 50% | 1019.1 hPa | 0 mm | - | 586 W/m² | - |
| 1787859368 | 26.67° C | 48% | 1019.3 hPa | 0 mm | - | 592 W/m² | - |
| 1787859063 | 26.11° C | 50% | 1019.5 hPa | 0 mm | - | 582 W/m² | - |
| 1787858759 | 26.67° C | 48% | 1019.1 hPa | 0 mm | - | 286 W/m² | - |
| 1787858455 | 26.67° C | 50% | 1019.3 hPa | 0 mm | - | 115 W/m² | - |
| 1787858154 | 26.11° C | 49% | 1019.5 hPa | 0 mm | - | 517 W/m² | - |
| 1787857850 | 25.56° C | 51% | 1019.4 hPa | 0 mm | - | 179 W/m² | - |
| 1787857545 | 26.67° C | 50% | 1019.8 hPa | 0 mm | - | 185 W/m² | - |
| 1787857245 | 26.67° C | 49% | 1019.6 hPa | 0 mm | - | 662 W/m² | - |
| 1787856944 | 26.67° C | 49% | 1019.6 hPa | 0 mm | - | 400 W/m² | - |
| 1787856639 | 26.67° C | 49% | 1019.6 hPa | 0 mm | - | 162 W/m² | - |
| 1787856333 | 26.67° C | 48% | 1019.7 hPa | 0 mm | - | 215 W/m² | - |
| 1787856029 | 26.67° C | 50% | 1019.6 hPa | 0 mm | - | 227 W/m² | - |
| 1787855728 | 26.67° C | 50% | 1019.5 hPa | 0 mm | - | 201 W/m² | - |
| 1787855424 | 26.11° C | 50% | 1019.5 hPa | 0 mm | - | 147 W/m² | - |
| 1787855119 | 26.11° C | 50% | 1019.4 hPa | 0 mm | - | 187 W/m² | - |
| 1787854815 | 26.67° C | 51% | 1019.7 hPa | 0 mm | - | 331 W/m² | - |
| 1787854514 | 26.67° C | 50% | 1019.4 hPa | 0 mm | - | 239 W/m² | - |
| 1787854209 | 26.67° C | 51% | 1019.5 hPa | 0 mm | - | 540 W/m² | - |
| 1787853904 | 26.67° C | 51% | 1019.5 hPa | 0 mm | - | 563 W/m² | - |
| 1787853602 | 26.11° C | 50% | 1019.7 hPa | 0 mm | - | 621 W/m² | - |
| 1787853297 | 25.56° C | 53% | 1019.7 hPa | 0 mm | - | 635 W/m² | - |
| 1787852996 | 26.11° C | 51% | 1019.7 hPa | 0 mm | - | 640 W/m² | - |
| 1787852691 | 26.11° C | 53% | 1019.9 hPa | 0 mm | - | 619 W/m² | - |
| 1787852390 | 26.11° C | 53% | 1019.7 hPa | 0 mm | - | 617 W/m² | - |
* Rain latest hour (hover to see other rain measurements)
** Current wind speed in m/s (hover to see current wind gust speed)